UPSVAC Airport Information Service

Oakland International Airport

ICAO: KOAK Country: United States
Latitude: 37.7213 Longitude: -122.22
Latest Arrival : UPSJUMP (KONT-KOAK) Latest Departure : UPSJUMP (KOAK-KONT)


WX CaptureLIVE
Data provided by noaa.gov | Fetched at 16:05:09

METAR : KOAK 281553Z 28005KT 10SM FEW008 BKN200 17/13 A3005 RMK AO2 SLP176 T01670133

TAF : KOAK 281120Z 2812/2918 30004KT P6SM BKN006 FM281500 29006KT P6SM FEW008 FM282000 31013KT P6SM SKC FM290500 31007KT P6SM FEW008 FM290900 31004KT P6SM BKN008 FM291600 29006KT P6SM BKN008


Runway Data for KOAK
Data provided by openaviationdata.com

Runway ID Mag Var Hdg Length Elevation Surface ILS Freq ILS Id ILS Slope
09L 16 96° 5447 ft 6 ft Asphalt -- -- --
09R 16 96° 6206 ft 6 ft Asphalt -- -- --
11 16 114° 9998 ft 6 ft Asphalt 111.9 IAAZ 2
15 16 148° 3369 ft 6 ft Asphalt -- -- --
27L 16 276° 6206 ft 6 ft Asphalt -- -- --
27R 16 276° 5447 ft 6 ft Asphalt 109.9 IOAK 2
29 16 294° 9998 ft 6 ft Asphalt 108.7 IINB 3
33 16 328° 3369 ft 6 ft Asphalt -- -- --

Oakland International Airport, United States
Use only for reference purposes



Not for navigational purposes.